Regional Weather Roundup
Issued by NWS

Home | Current Version | Previous Version | Text Only | Print | Product List | Glossary Off
Versions: 1 2 3 4 5 6 7 8 9 10 11 12 13 14 15 16 17 18 19 20 21 22 23 24 25 26 27 28 29 30 31 32 33 34 35 36 37 38 39 40 41 42 43 44 45 46 47 48 49 50

000
ASUS45 KCYS 270410
RWRWY

WYOMING REGIONAL WEATHER ROUNDUP
NATIONAL WEATHER SERVICE CHEYENNE WY
900 PM MST WED NOV 26 2014

NOTE:  "FAIR" INDICATES FEW OR NO CLOUDS BELOW 12,000 FEET
WITH NO SIGNIFICANT WEATHER AND/OR OBSTRUCTIONS TO VISIBILITY.

WYZ001-270500-
YELLOWSTONE NATIONAL PARK

CITY           SKY/WX    TMP DP  RH WIND       PRES   REMARKS
LK YELLOWSTONE   N/A     33  29  85 VRB5      30.28S WCI  29
W YELLOWSTONE  NOT AVBL

$$
WYZ002>013-054>058-071-098>099-270500-
NORTHERN WYOMING

CITY           SKY/WX    TMP DP  RH WIND       PRES   REMARKS
JACKSON        MOCLDY    37  30  75 SW10      30.28F WCI  30
CODY           CLOUDY    23  23 100 N8        30.11F VSB 1/2 WCI  14
GREYBULL       CLOUDY    24  24 100 S6        30.19F FOG     WCI  17
WORLAND        CLOUDY    20  17  88 CALM      30.19F FOG
SHERIDAN       CLOUDY    26  24  92 W6        30.13S WCI  19
BUFFALO        MOCLDY    23  19  85 SE7       30.11F WCI  15
GILLETTE       PTCLDY    25  21  85 SE5       30.16F WCI  19
HULETT           N/A    N/A N/A N/A MISG        N/A
NEWCASTLE      MOCLDY    28  27  93 SE3       30.23S

$$
WYZ014>020-022>026-101>103-270500-
CENTRAL WYOMING

CITY           SKY/WX    TMP DP  RH WIND       PRES   REMARKS
BIG PINEY      CLEAR    N/A N/A N/A CALM      30.34S
PINEDALE       PTCLDY    27  25  93 NW8       30.34S WCI  18
DUBOIS         FAIR      36  27  69 N20G28    30.23S WCI  25
LANDER         PTCLDY    35  27  72 SE6       30.17F WCI  30
RIVERTON       MOCLDY    39  27  62 SW13      30.17S WCI  31
CASPER         PTCLDY    16  13  88 NE5       30.18S WCI   9
DOUGLAS        CLOUDY    21  19  92 CALM      30.20S

$$
WYZ021-027>030-104>119-270500-
SOUTHERN WYOMING

CITY           SKY/WX    TMP DP  RH WIND       PRES   REMARKS
EVANSTON       MOCLDY    35  23  61 SW9       30.39S WCI  28
FORT BRIDGER   FAIR      40  24  53 W15G23    30.40S WCI  31
ROCK SPRINGS   MOCLDY    36  25  64 SW10      30.35F WCI  28
DIXON          FAIR      38  26  63 CALM      30.40S
RAWLINS        CLOUDY    38  27  64 W22G29    30.30S WCI  27
SARATOGA       FAIR      39  28  65 SW17G24   30.31F WCI  30
LARAMIE        PTCLDY    38  25  59 W20       30.24R WCI  28
CHEYENNE       CLEAR     24  20  84 SW3       30.21R
TORRINGTON     FOG       23  22  96 E8        30.23S VSB 3/4 WCI  14
PINE BLUFFS    FAIR      19  18  93 S8        30.25S WCI   9

$$


USA.gov is the U.S. government's official web portal to all federal, state and local government web resources and services.